| time (UTC) | temp F | wind direction | speed MPH | gust MPH | rain 1hr in | rain 24hr in | rain mn in | humidity % | barometer mb |
| 20260510043123 | 79 | 346 | 4.0 | 8.0 | 0.00 | 0.12 | 0.00 | 84 | 1014.0 |
| 20260510042103 | 79 | 344 | 4.0 | 8.0 | 0.00 | 0.12 | 0.00 | 84 | 1014.2 |
| 20260510041055 | 78 | 332 | 3.0 | 7.0 | 0.00 | 0.12 | 0.00 | 84 | 1014.1 |
| 20260510040106 | 78 | 31 | 4.0 | 10.0 | 0.00 | 0.12 | 0.00 | 84 | 1014.2 |
| 20260510035123 | 78 | 10 | 4.0 | 11.0 | 0.00 | 0.12 | 0.12 | 84 | 1014.1 |
| 20260510034139 | 78 | 38 | 5.0 | 11.0 | 0.00 | 0.12 | 0.12 | 84 | 1014.0 |
| 20260510033113 | 79 | 348 | 6.0 | 11.0 | 0.00 | 0.12 | 0.12 | 84 | 1014.1 |
| 20260510032039 | 79 | 18 | 8.0 | 13.0 | 0.00 | 0.12 | 0.12 | 83 | 1014.0 |
| 20260510031024 | 80 | 335 | 9.0 | 13.0 | 0.00 | 0.12 | 0.12 | 83 | 1013.8 |
| 20260510024834 | 80 | 297 | 8.0 | 9.0 | 0.00 | 0.12 | 0.12 | 80 | 1014.1 |
| 20260510023833 | 80 | 322 | 7.0 | 9.0 | 0.00 | 0.12 | 0.12 | 78 | 1014.1 |
| 20260510022804 | 80 | 303 | 7.0 | 8.0 | 0.00 | 0.12 | 0.12 | 78 | 1014.2 |
| 20260510021749 | 80 | 294 | 6.0 | 9.0 | 0.00 | 0.12 | 0.12 | 79 | 1014.0 |
| 20260510020716 | 80 | 261 | 9.0 | 11.0 | 0.00 | 0.12 | 0.12 | 80 | 1014.0 |
| 20260510015650 | 80 | 225 | 11.0 | 16.0 | 0.00 | 0.12 | 0.12 | 80 | 1013.8 |
| 20260510014627 | 81 | 199 | 2.0 | 16.0 | 0.00 | 0.12 | 0.12 | 80 | 1013.7 |
| 20260510013601 | 79 | 333 | 2.0 | 7.0 | 0.00 | 0.12 | 0.12 | 80 | 1013.0 |
| 20260510012612 | 79 | 346 | 2.0 | 7.0 | 0.00 | 0.12 | 0.12 | 80 | 1012.8 |
| 20260510011632 | 79 | 339 | 3.0 | 5.0 | 0.00 | 0.12 | 0.12 | 81 | 1012.6 |
| 20260510010613 | 79 | 326 | 2.0 | 9.0 | 0.00 | 0.12 | 0.12 | 80 | 1012.5 |
| 20260510005546 | 79 | 340 | 7.0 | 14.0 | 0.00 | 0.12 | 0.12 | 80 | 1012.3 |
| 20260510004518 | 80 | 323 | 10.0 | 16.0 | 0.05 | 0.12 | 0.12 | 81 | 1012.2 |
| 20260510003521 | 80 | 309 | 12.0 | 16.0 | 0.25 | 0.12 | 0.12 | 80 | 1012.3 |
| 20260510002508 | 81 | 296 | 10.0 | 15.0 | 0.00 | 0.09 | 0.09 | 78 | 1012.5 |
| 20260510001459 | 80 | 317 | 7.0 | 15.0 | 0.05 | 0.09 | 0.09 | 81 | 1012.3 |
| 20260510000428 | 79 | 46 | 4.0 | 29.0 | 0.05 | 0.08 | 0.08 | 82 | 1012.1 |
| 20260509235445 | 80 | 355 | 14.0 | 29.0 | 0.49 | 0.08 | 0.08 | 79 | 1011.8 |
| 20260509233259 | 83 | 158 | 12.0 | 21.0 | 0.00 | 0.00 | 0.00 | 80 | 1010.5 |
| 20260509232316 | 83 | 141 | 13.0 | 23.0 | 0.00 | 0.00 | 0.00 | 80 | 1010.5 |
| 20260509231253 | 83 | 132 | 13.0 | 23.0 | 0.00 | 0.00 | 0.00 | 80 | 1010.3 |
| 20260509230257 | 83 | 138 | 12.0 | 18.0 | 0.00 | 0.00 | 0.00 | 80 | 1010.3 |
| 20260509225244 | 83 | 138 | 11.0 | 19.0 | 0.00 | 0.00 | 0.00 | 81 | 1010.5 |
| 20260509224236 | 83 | 146 | 10.0 | 19.0 | 0.00 | 0.00 | 0.00 | 80 | 1010.5 |
| 20260509222103 | 83 | 151 | 10.0 | 16.0 | 0.00 | 0.00 | 0.00 | 80 | 1010.4 |
| 20260509221108 | 84 | 144 | 11.0 | 21.0 | 0.00 | 0.00 | 0.00 | 79 | 1010.5 |
| 20260509214948 | 84 | 150 | 12.0 | 20.0 | 0.00 | 0.00 | 0.00 | 78 | 1010.4 |
| 20260509211702 | 84 | 163 | 13.0 | 22.0 | 0.00 | 0.00 | 0.00 | 76 | 1010.4 |
| 20260509210657 | 84 | 137 | 12.0 | 20.0 | 0.00 | 0.00 | 0.00 | 76 | 1010.6 |
| 20260509204457 | 84 | 119 | 13.0 | 21.0 | 0.00 | 0.00 | 0.00 | 75 | 1010.5 |
| 20260509203510 | 85 | 121 | 13.0 | 21.0 | 0.00 | 0.00 | 0.00 | 73 | 1010.6 |
| 20260509202508 | 84 | 125 | 13.0 | 22.0 | 0.00 | 0.00 | 0.00 | 74 | 1010.6 |
| 20260509201528 | 84 | 122 | 12.0 | 24.0 | 0.00 | 0.00 | 0.00 | 74 | 1010.6 |
| 20260509200531 | 84 | 117 | 12.0 | 24.0 | 0.00 | 0.00 | 0.00 | 76 | 1010.7 |
| 20260509195514 | 84 | 124 | 10.0 | 18.0 | 0.00 | 0.00 | 0.00 | 75 | 1010.9 |
| 20260509194530 | 85 | 123 | 8.0 | 16.0 | 0.00 | 0.00 | 0.00 | 74 | 1011.1 |
| 20260509193550 | 84 | 161 | 10.0 | 18.0 | 0.00 | 0.00 | 0.00 | 75 | 1011.2 |
| 20260509191356 | 86 | 136 | 8.0 | 16.0 | 0.00 | 0.00 | 0.00 | 72 | 1011.4 |
| 20260509190328 | 86 | 139 | 8.0 | 16.0 | 0.00 | 0.00 | 0.00 | 69 | 1011.4 |
| 20260509184125 | 90 | 194 | 9.0 | 14.0 | 0.00 | 0.00 | 0.00 | 50 | 1011.8 |
| 20260509181942 | 90 | 204 | 11.0 | 15.0 | 0.00 | 0.00 | 0.00 | 55 | 1011.9 |
| 20260509180922 | 90 | 221 | 8.0 | 15.0 | 0.00 | 0.00 | 0.00 | 55 | 1011.9 |
| 20260509175851 | 90 | 196 | 11.0 | 18.0 | 0.00 | 0.00 | 0.00 | 51 | 1011.9 |
| 20260509174853 | 89 | 225 | 12.0 | 18.0 | 0.00 | 0.00 | 0.00 | 58 | 1012.0 |
| 20260509173821 | 89 | 192 | 11.0 | 19.0 | 0.00 | 0.00 | 0.00 | 57 | 1012.0 |
| 20260509172837 | 89 | 221 | 13.0 | 19.0 | 0.00 | 0.00 | 0.00 | 57 | 1012.1 |
| 20260509171825 | 89 | 191 | 11.0 | 17.0 | 0.00 | 0.00 | 0.00 | 60 | 1012.2 |
| 20260509170842 | 88 | 200 | 8.0 | 14.0 | 0.00 | 0.00 | 0.00 | 57 | 1012.2 |
| 20260509165830 | 88 | 198 | 10.0 | 13.0 | 0.00 | 0.00 | 0.00 | 62 | 1012.3 |
| 20260509164813 | 87 | 205 | 9.0 | 15.0 | 0.00 | 0.00 | 0.00 | 61 | 1012.4 |
| 20260509163829 | 88 | 195 | 10.0 | 15.0 | 0.00 | 0.00 | 0.00 | 58 | 1012.7 |
| 20260509162820 | 87 | 208 | 11.0 | 15.0 | 0.00 | 0.00 | 0.00 | 57 | 1012.7 |
| 20260509155547 | 86 | 214 | 12.0 | 18.0 | 0.00 | 0.00 | 0.00 | 58 | 1013.0 |
| 20260509154541 | 86 | 200 | 13.0 | 18.0 | 0.00 | 0.00 | 0.00 | 65 | 1013.1 |
| 20260509152415 | 86 | 180 | 12.0 | 16.0 | 0.00 | 0.00 | 0.00 | 62 | 1013.3 |
| 20260509151437 | 86 | 175 | 11.0 | 16.0 | 0.00 | 0.00 | 0.00 | 64 | 1013.5 |
| 20260509150415 | 85 | 220 | 12.0 | 16.0 | 0.00 | 0.00 | 0.00 | 60 | 1013.5 |
| 20260509145355 | 85 | 192 | 12.0 | 15.0 | 0.00 | 0.00 | 0.00 | 62 | 1013.6 |
| 20260509144330 | 84 | 200 | 9.0 | 13.0 | 0.00 | 0.00 | 0.00 | 64 | 1013.5 |
| 20260509143332 | 84 | 187 | 8.0 | 12.0 | 0.00 | 0.00 | 0.00 | 67 | 1013.4 |
| 20260509141208 | 83 | 196 | 7.0 | 10.0 | 0.00 | 0.00 | 0.00 | 71 | 1013.4 |
| 20260509140158 | 81 | 197 | 4.0 | 9.0 | 0.00 | 0.00 | 0.00 | 76 | 1013.4 |
| 20260509135206 | 80 | 178 | 3.0 | 7.0 | 0.00 | 0.00 | 0.00 | 79 | 1013.5 |
| 20260509134218 | 80 | 178 | 3.0 | 7.0 | 0.00 | 0.00 | 0.00 | 81 | 1013.6 |
| 20260509133227 | 79 | 148 | 2.0 | 5.0 | 0.00 | 0.00 | 0.00 | 82 | 1013.6 |
| 20260509131115 | 78 | 161 | 2.0 | 5.0 | 0.00 | 0.00 | 0.00 | 84 | 1013.7 |
| 20260509130131 | 77 | 194 | 3.0 | 5.0 | 0.00 | 0.00 | 0.00 | 84 | 1013.4 |
| 20260509125140 | 77 | 169 | 4.0 | 6.0 | 0.00 | 0.00 | 0.00 | 85 | 1013.4 |
| 20260509124117 | 77 | 167 | 4.0 | 7.0 | 0.00 | 0.00 | 0.00 | 85 | 1013.2 |
| 20260509123052 | 76 | 193 | 6.0 | 9.0 | 0.00 | 0.00 | 0.00 | 86 | 1013.1 |
| 20260509122053 | 76 | 193 | 7.0 | 9.0 | 0.00 | 0.00 | 0.00 | 86 | 1013.1 |
| 20260509121114 | 76 | 195 | 8.0 | 10.0 | 0.00 | 0.00 | 0.00 | 86 | 1013.1 |
| 20260509113920 | 76 | 198 | 7.0 | 9.0 | 0.00 | 0.00 | 0.00 | 86 | 1013.1 |
| 20260509112903 | 76 | 209 | 7.0 | 9.0 | 0.00 | 0.00 | 0.00 | 86 | 1013.1 |
| 20260509110752 | 76 | 207 | 5.0 | 7.0 | 0.00 | 0.00 | 0.00 | 86 | 1012.9 |
| 20260509105757 | 76 | 207 | 3.0 | 6.0 | 0.00 | 0.00 | 0.00 | 86 | 1012.9 |
| 20260509104813 | 76 | 237 | 4.0 | 5.0 | 0.00 | 0.00 | 0.00 | 86 | 1012.9 |
| 20260509103831 | 77 | 233 | 5.0 | 8.0 | 0.00 | 0.00 | 0.00 | 86 | 1012.6 |
| 20260509102823 | 77 | 198 | 7.0 | 10.0 | 0.00 | 0.00 | 0.00 | 86 | 1012.5 |
| 20260509101838 | 78 | 180 | 8.0 | 11.0 | 0.00 | 0.00 | 0.00 | 85 | 1012.5 |
| 20260509100854 | 78 | 178 | 8.0 | 12.0 | 0.00 | 0.00 | 0.00 | 85 | 1012.3 |
| 20260509095841 | 78 | 192 | 8.0 | 12.0 | 0.00 | 0.00 | 0.00 | 85 | 1012.3 |
| 20260509094822 | 78 | 140 | 8.0 | 11.0 | 0.00 | 0.00 | 0.00 | 84 | 1012.3 |
| 20260509093817 | 78 | 155 | 7.0 | 11.0 | 0.00 | 0.00 | 0.00 | 84 | 1012.3 |
| 20260509092751 | 78 | 160 | 6.0 | 10.0 | 0.00 | 0.00 | 0.00 | 84 | 1012.2 |
| 20260509090602 | 78 | 160 | 5.0 | 9.0 | 0.00 | 0.00 | 0.00 | 83 | 1012.3 |
| 20260509085537 | 78 | 161 | 5.0 | 9.0 | 0.00 | 0.00 | 0.00 | 83 | 1012.3 |
| 20260509084547 | 78 | 178 | 6.0 | 9.0 | 0.00 | 0.00 | 0.00 | 82 | 1012.5 |
| 20260509083516 | 78 | 184 | 5.0 | 7.0 | 0.00 | 0.00 | 0.00 | 82 | 1012.5 |
| 20260509082442 | 79 | 172 | 5.0 | 7.0 | 0.00 | 0.00 | 0.00 | 82 | 1012.5 |
| 20260509080345 | 79 | 176 | 3.0 | 5.0 | 0.00 | 0.00 | 0.00 | 82 | 1012.5 |
| 20260509075333 | 79 | 170 | 2.0 | 5.0 | 0.00 | 0.00 | 0.00 | 81 | 1012.6 |
| 20260509074349 | 79 | 190 | 3.0 | 5.0 | 0.00 | 0.00 | 0.00 | 81 | 1012.6 |
| 20260509073338 | 79 | 196 | 4.0 | 6.0 | 0.00 | 0.00 | 0.00 | 81 | 1012.6 |
| 20260509072310 | 79 | 201 | 4.0 | 6.0 | 0.00 | 0.00 | 0.00 | 80 | 1012.7 |
| 20260509071321 | 79 | 205 | 3.0 | 4.0 | 0.00 | 0.00 | 0.00 | 80 | 1012.9 |
| 20260509070247 | 79 | 191 | 1.0 | 3.0 | 0.00 | 0.00 | 0.00 | 80 | 1013.0 |
| 20260509065306 | 79 | 208 | 1.0 | 3.0 | 0.00 | 0.00 | 0.00 | 80 | 1013.1 |
| 20260509063116 | 79 | 243 | 2.0 | 5.0 | 0.00 | 0.00 | 0.00 | 81 | 1013.3 |
| 20260509060934 | 79 | 267 | 4.0 | 8.0 | 0.00 | 0.00 | 0.00 | 81 | 1013.5 |
| 20260509055943 | 79 | 288 | 5.0 | 8.0 | 0.00 | 0.00 | 0.00 | 81 | 1013.5 |
| 20260509054919 | 78 | 309 | 3.0 | 7.0 | 0.00 | 0.00 | 0.00 | 82 | 1013.6 |
| 20260509050523 | 79 | 269 | 7.0 | 15.0 | 0.00 | 0.00 | 0.00 | 82 | 1014.0 |
| 20260509045530 | 79 | 291 | 10.0 | 15.0 | 0.00 | 0.00 | 0.00 | 82 | 1014.2 |
| 20260509044518 | 80 | 295 | 9.0 | 12.0 | 0.00 | 0.00 | 0.00 | 81 | 1014.1 |
| 20260509043455 | 80 | 277 | 8.0 | 15.0 | 0.00 | 0.00 | 0.00 | 81 | 1014.1 |